Location: Alafon
(8.4500°N, 4.2333°E)
Time: 14:47:38
(UTC+00:00)

Vanguard 1 Rocket - Pass Details

Date: 27 July 2021
Orbit: 650 x 4226 km, 34.3° (Epoch: 23 September)

Event Time Altitude Azimuth Distance (km) Brightness Sun altitude
Exits shadow 02:42:54 - 182° (S) 6,712 11.5 -39.2°
Reaches altitude 10° 02:45:56 10° 173° (S) 6,767 11.6 -38.5°
Maximum altitude 02:51:53 11° 158° (SSE) 6,981 11.8 -37.3°
Drops below altitude 10° 02:58:15 10° 143° (SE) 7,327 12.0 -35.9°
Sets 03:13:06 0° 114° (ESE) 8,396 12.8 -32.8°
